Marshalltown, IA

7:31 PM CST on November 15, 2019 (GMT -0600)
Marshalltown Municipal

Weather History for KMIW - September, 2019

Change the Weather History Date:

Friday, September 13, 2019

  Actual Average Record
Temperature  
Mean Temperature 61 °F 64 °F  
Max Temperature 70 °F 76 °F 89 °F (2000)
Min Temperature 52 °F 52 °F 34 °F (2014)
Degree Days  
Heating Degree Days 4 4  
Month to date heating degree days 12 30  
Since 1 July heating degree days 22 51  
Cooling Degree Days 0 2  
Month to date cooling degree days 48 40  
Year to date cooling degree days 648 696  
Growing Degree Days 12 (Base 50)    
Moisture  
Dew Point 56 °F    
Average Humidity 81    
Maximum Humidity 100    
Minimum Humidity 61    
Precipitation  
Precipitation T in 0.10 in 0.31 in (2012)
Month to date precipitation 1.99 1.50  
Sea Level Pressure  
Sea Level Pressure 30.06 in    
Wind  
Wind Speed 10 mph (West)    
Max Wind Speed 24 mph    
Max Gust Speed 39 mph    
Visibility 10 miles    
Events Rain    
T = Trace of Precipitation, MM = Missing Value Source: NWS Daily Summary

Daily Weather History Graph

Daily Weather History Graph

Search for Another Location

Airport or City:

Astronomy

Sep. 13, 2019 Rise Set
Actual Time 6:49 AM CDT 7:25 PM CDT
Civil Twilight 6:21 AM CDT 7:53 PM CDT
Nautical Twilight 5:47 AM CDT 8:26 PM CDT
Astronomical Twilight 5:13 AM CDT 9:00 PM CDT
Moon 7:40 PM CDT (9/13) 6:04 AM CDT (9/13)
Length of Visible Light 13h 31m
Length of Day
12h 35m
Full, 100% of the Moon is Illuminated
Sep 13
Full
Sep 13
Full
Sep 21
Last Quarter
Sep 28
New
Oct 5
First Quarter

Hourly Weather History & Observations

Time (CDT) Temp. Dew Point Humidity Pressure Visibility Wind Dir Wind Speed Gust Speed Precip Events Conditions
12:53 AM 64.0 °F 62.1 °F 93% 29.93 in 10.0 mi SW 10.4 mph - N/A   Clear
1:53 AM 63.0 °F 60.1 °F 90% 29.94 in 10.0 mi West 12.7 mph - N/A   Clear
2:53 AM 60.1 °F 57.9 °F 93% 29.94 in 10.0 mi West 6.9 mph - N/A   Clear
3:53 AM 59.0 °F 57.0 °F 93% 29.96 in 10.0 mi West 11.5 mph 20.7 mph N/A   Clear
4:53 AM 59.0 °F 57.0 °F 93% 29.97 in 10.0 mi West 10.4 mph - N/A   Clear
5:53 AM 57.0 °F 55.9 °F 96% 29.99 in 10.0 mi West 10.4 mph - N/A   Clear
6:53 AM 57.0 °F 55.9 °F 96% 30.01 in 10.0 mi West 10.4 mph - N/A   Scattered Clouds
7:09 AM 57.9 °F 57.0 °F 97% 30.02 in 10.0 mi West 10.4 mph - N/A   Mostly Cloudy
7:25 AM 59.0 °F 57.0 °F 93% 30.03 in 10.0 mi West 9.2 mph 18.4 mph N/A   Overcast
7:35 AM 57.9 °F 57.0 °F 97% 30.03 in 10.0 mi West 8.1 mph - N/A   Overcast
7:53 AM 57.9 °F 57.9 °F 100% 30.03 in 10.0 mi WSW 9.2 mph - 0.00 in Rain Light Rain
8:37 AM 59.0 °F 57.9 °F 96% 30.06 in 10.0 mi West 11.5 mph - 0.00 in   Overcast
8:53 AM 57.9 °F 52.0 °F 81% 30.06 in 10.0 mi West 16.1 mph 28.8 mph 0.00 in   Overcast
9:08 AM 59.0 °F 53.1 °F 81% 30.08 in 10.0 mi West 16.1 mph 29.9 mph N/A   Scattered Clouds
9:53 AM 61.0 °F 52.0 °F 72% 30.08 in 10.0 mi West 19.6 mph 28.8 mph N/A   Mostly Cloudy
10:53 AM 61.0 °F 51.1 °F 70% 30.10 in 10.0 mi WNW 20.7 mph 32.2 mph N/A   Mostly Cloudy
11:41 AM 62.1 °F 54.0 °F 75% 30.11 in 10.0 mi West 16.1 mph - N/A   Mostly Cloudy
11:53 AM 62.1 °F 54.0 °F 75% 30.10 in 10.0 mi West 17.3 mph 24.2 mph N/A   Overcast
12:31 PM 63.0 °F 53.1 °F 70% 30.11 in 10.0 mi WNW 20.7 mph 29.9 mph N/A   Scattered Clouds
12:53 PM 63.0 °F 53.1 °F 70% 30.10 in 10.0 mi West 16.1 mph 26.5 mph N/A   Mostly Cloudy
1:53 PM 66.9 °F 55.0 °F 66% 30.11 in 10.0 mi West 16.1 mph 23.0 mph N/A   Mostly Cloudy
2:53 PM 68.0 °F 55.0 °F 63% 30.10 in 10.0 mi West 12.7 mph 24.2 mph N/A   Mostly Cloudy
3:53 PM 69.1 °F 55.0 °F 61% 30.10 in 10.0 mi West 17.3 mph 23.0 mph N/A   Scattered Clouds
4:53 PM 69.1 °F 55.0 °F 61% 30.09 in 10.0 mi West 13.8 mph 21.9 mph N/A   Clear
5:53 PM 69.1 °F 55.0 °F 61% 30.09 in 10.0 mi West 9.2 mph 19.6 mph N/A   Partly Cloudy
6:53 PM 66.0 °F 55.9 °F 70% 30.10 in 10.0 mi West 4.6 mph - N/A   Clear
7:53 PM 61.0 °F 55.9 °F 83% 30.12 in 10.0 mi Calm Calm - N/A   Clear
8:53 PM 60.1 °F 55.0 °F 83% 30.12 in 10.0 mi Calm Calm - N/A   Clear
9:53 PM 55.9 °F 55.9 °F 100% 30.14 in 10.0 mi South 4.6 mph - N/A   Clear
10:53 PM 55.0 °F 54.0 °F 96% 30.15 in 10.0 mi SSW 3.5 mph - N/A   Clear
11:53 PM 54.0 °F 54.0 °F 100% 30.15 in 10.0 mi SSW 3.5 mph - N/A   Clear